Flag for Germany Weather past 2 weeks in Solingen, North Rhine-Westphalia, Germany

Now
43 °F

Light rain. Mostly cloudy.


Feels Like: 36 °F
Forecast: 38 / 51 °F
Wind: 12 mph from South

Location: Duesseldorf

Current Time: Mar 31, 2015 at 1:21:16 AM

Latest Report: Mar 31, 2015 at 12:50 AM


Visibility: N/A

Pressure: 29.65 "Hg

Humidity: 87%

Dew point: 39 °F

Location of SolingenLocation

Historic Weather in Solingen — Graph

°F

Solingen temperature yesterday

Maximum temperature yesterday: 48 °F (at 11:50 AM)
Minimum temperature yesterday: 41 °F (at 12:50 PM)
Average temperature yesterday: 46 °F

Past Weeks' High & Low Weather Summary

 TemperatureHumidityPressure
High64 °F (Mar 17, 1:50 PM)100% (Mar 20, 2:50 AM)30.39 "Hg (Mar 20, 2:50 AM)
Low30 °F (Mar 20, 2:50 AM)32% (Mar 17, 4:20 PM)29.27 "Hg (Mar 29, 7:50 PM)
Average45 °F77%30.01 "Hg
* Reported Mar 15 11:20 PM — Mar 31 12:20 AM, Solingen, Weather by CustomWeather, © 2015

Note: Actual official high and low records may vary slightly from our data, if they occured in-between our weather recording intervals... More about our weather records

Advertising

Solingen weather history for previous 24 hours

 ConditionsComfort  
Time TempWeatherWind HumidityBarometerVisibility
12:20 AM
Tue, Mar 31
43 °FLight rain. Mostly cloudy.13 mph81%29.68 "HgN/A
11:50 PM
Mon, Mar 30
45 °FLight rain. Mostly cloudy.17 mph66%29.71 "HgN/A
11:20 PM45 °FPartly cloudy.14 mph61%29.74 "HgN/A
10:50 PM45 °FPartly cloudy.12 mph61%29.74 "HgN/A
10:20 PM45 °FClear.10 mph57%29.77 "Hg10 mi
9:50 PM43 °FClear.9 mph61%29.80 "Hg10 mi
9:20 PM41 °FClear.7 mph66%29.83 "Hg10 mi
8:50 PM43 °FSunny.7 mph61%29.83 "Hg10 mi
8:20 PM45 °FSunny.8 mph53%29.83 "Hg10 mi
7:50 PM46 °FSunny.12 mph50%29.86 "Hg10 mi
7:20 PM46 °FSunny.12 mph46%29.83 "Hg10 mi
6:50 PM48 °FSunny.15 mph43%29.83 "Hg10 mi
6:20 PM48 °FSunny.20 mph43%29.83 "Hg10 mi
5:50 PM48 °FPassing clouds.15 mph46%29.83 "HgN/A
5:20 PM48 °FPassing clouds.17 mph46%29.80 "HgN/A
4:50 PM46 °FScattered clouds.17 mph53%29.80 "HgN/A
4:20 PM46 °FScattered clouds.17 mph53%29.80 "HgN/A
3:50 PM46 °FScattered clouds.22 mph53%29.77 "HgN/A
3:20 PM48 °FBroken clouds.23 mph54%29.77 "HgN/A
2:50 PM48 °FBroken clouds.25 mph54%29.74 "HgN/A
2:20 PM48 °FScattered showers. Broken clouds.26 mph58%29.74 "HgN/A
1:50 PM48 °FSprinkles. Scattered clouds.22 mph62%29.71 "HgN/A
1:20 PM46 °FScattered clouds.20 mph71%29.68 "HgN/A
12:50 PM41 °FSnow showers. Partly sunny.16 mph81%29.68 "HgN/A
12:20 PM45 °FSprinkles. Partly sunny.17 mph71%29.68 "HgN/A
11:50 AM48 °FSprinkles. Broken clouds.21 mph54%29.65 "HgN/A
11:20 AM46 °FScattered clouds.17 mph53%29.65 "HgN/A
10:50 AM46 °FScattered clouds.21 mph53%29.62 "HgN/A
10:20 AM46 °FScattered clouds.24 mph62%29.62 "HgN/A
9:50 AM45 °FScattered clouds.24 mph66%29.59 "HgN/A
9:20 AM45 °FSprinkles. Partly sunny.16 mph76%29.56 "HgN/A
8:50 AM45 °FScattered clouds.15 mph76%29.56 "HgN/A
8:20 AM45 °FBroken clouds.14 mph76%29.53 "HgN/A
7:50 AM43 °FPassing clouds.13 mph76%29.53 "HgN/A
7:20 AM43 °FPassing clouds.15 mph76%29.53 "HgN/A
6:50 AM45 °FPassing clouds.14 mph76%29.50 "HgN/A
6:20 AM45 °FPassing clouds.14 mph76%29.50 "HgN/A
5:50 AM45 °FPassing clouds.15 mph76%29.47 "HgN/A
5:20 AM45 °FPassing clouds.13 mph76%29.47 "HgN/A
4:50 AM45 °FPassing clouds.15 mph76%29.47 "HgN/A
4:20 AM45 °FPassing clouds.16 mph81%29.45 "HgN/A
3:50 AM45 °FPassing clouds.16 mph81%29.45 "HgN/A
3:20 AM45 °FScattered showers. Partly cloudy.23 mph87%29.45 "HgN/A
2:50 AM46 °FSprinkles. Partly cloudy.22 mph87%29.42 "HgN/A
2:20 AM46 °FLight rain. Partly cloudy.14 mph82%29.42 "HgN/A
1:50 AM46 °FLight rain. Passing clouds.10 mph76%29.42 "HgN/A
1:20 AM46 °FPartly cloudy.14 mph76%29.45 "HgN/A
Weather by CustomWeather, © 2015

See weather overviewHow to use our weather pages